Dauntless Aviation
Greetings, Guest! To participate, [sign up for a free account] or [log in]
Airports Europe Germany
EDSW

Altdorf-Wallburg

Altdorf-Wallburg, GERMANY

Airport Info
Edit

Location

Latitude / Longitude: 48°16'11"N / 7°50'31"E
  48°16.188'N / 7°50.532'E
  48.2698 / 7.8422
Satellite photo at:
Airport distance calculator
From:
Weather Reports

METAR

EDTL
5.8nm NW
EDTL 301320Z 33003KT 9999 FEW022 BKN055 21/16 Q1026
LFST
18.2nm NW
LFST 301330Z AUTO VRB01KT 9999 FEW025 OVC064 21/15 Q1026
EDSB
32.3nm N
EDSB 301320Z VRB03KT 9999 FEW022 SCT040 BKN070 21/14 Q1026

TAF

EDTL
5.8nm NW
TAF EDTL 301100Z 3012/3021 VRB03KT 9999 BKN035 TEMPO 3013/3018 SHRA BKN025TCU
LFST
18.2nm NW
TAF LFST 301100Z 3012/0112 VRB03KT 9999 SCT035 BKN060 PROB40 TEMPO 3013/3016 -SHRA FEW025TCU PROB30 TEMPO 0100/0107 3000 BR FEW005
EDSB
32.3nm N
TAF EDSB 301100Z 3012/0112 VRB03KT 9999 BKN035 PROB30 TEMPO 3013/3017 SHRA BKN020TCU TEMPO 0102/0109 1200 BCFG BKN002 PROB30 TEMPO 0105/0108 0400 FG VV001
Safelog

 

Dauntless Aviation

© 2007-2014 Dauntless Aviation, all rights reserved
Information provided via PilotNav comes from a variety of official and unofficial data sources. As errors are possible, do not use PilotNav for primary flight planning purposes. Verify any information that you receive via PilotNav with current and canonical charts and other official documents. The material in this database is subject to database copyrights held by Dauntless Aviation and may not be copied without the express permission of Dauntless Aviation - licenses for use of part of all of this data are available for purchase; enquire via the Dauntless Aviation helpdesk. A number of mechanisms and markers exist in the database to protect against and identify infringement / copyright. Automated queries against this website are stictly prohibited, and all activity is logged and analyzed.